| time (UTC) | temp F | wind direction | speed knots | gust knots | rain 1hr in | rain 24hr in | rain mn in | humidity % | barometer mb |
| 20260506025517 | 67 | 40 | 6.1 | 11.3 | 0.00 | 0.00 | 0.00 | 73 | 1008.6 |
| 20260506025034 | 67 | 25 | 5.2 | 11.3 | 0.00 | 0.00 | 0.00 | 73 | 1008.4 |
| 20260506024550 | 67 | 37 | 5.2 | 11.3 | 0.00 | 0.00 | 0.00 | 72 | 1008.4 |
| 20260506024028 | 67 | 41 | 6.1 | 12.2 | 0.00 | 0.00 | 0.00 | 72 | 1008.3 |
| 20260506023525 | 67 | 30 | 4.3 | 9.6 | 0.00 | 0.00 | 0.00 | 71 | 1008.2 |
| 20260506023021 | 68 | 22 | 4.3 | 8.7 | 0.00 | 0.00 | 0.00 | 71 | 1008.1 |
| 20260506022538 | 68 | 31 | 3.5 | 7.8 | 0.00 | 0.00 | 0.00 | 71 | 1008.1 |
| 20260506022055 | 68 | 28 | 6.1 | 9.6 | 0.00 | 0.00 | 0.00 | 71 | 1008.0 |
| 20260506021531 | 68 | 13 | 4.3 | 7.8 | 0.00 | 0.00 | 0.00 | 70 | 1007.8 |
| 20260506021028 | 68 | 26 | 4.3 | 7.8 | 0.00 | 0.00 | 0.00 | 70 | 1007.6 |
| 20260506020525 | 68 | 42 | 4.3 | 12.2 | 0.00 | 0.00 | 0.00 | 70 | 1007.6 |
| 20260506020022 | 68 | 33 | 5.2 | 10.4 | 0.00 | 0.00 | 0.00 | 70 | 1007.8 |
| 20260506015519 | 68 | 40 | 7.8 | 13.0 | 0.00 | 0.00 | 0.00 | 70 | 1007.5 |
| 20260506015016 | 68 | 41 | 6.1 | 12.2 | 0.00 | 0.00 | 0.00 | 71 | 1007.3 |
| 20260506014532 | 69 | 44 | 7.0 | 11.3 | 0.00 | 0.00 | 0.00 | 70 | 1007.0 |
| 20260506014029 | 69 | 42 | 6.1 | 13.0 | 0.00 | 0.00 | 0.00 | 70 | 1006.9 |
| 20260506013526 | 69 | 34 | 4.3 | 9.6 | 0.00 | 0.00 | 0.00 | 69 | 1007.1 |
| 20260506013023 | 69 | 36 | 5.2 | 12.2 | 0.00 | 0.00 | 0.00 | 69 | 1006.9 |
| 20260506012520 | 69 | 47 | 5.2 | 10.4 | 0.00 | 0.00 | 0.00 | 69 | 1006.8 |
| 20260506012017 | 70 | 35 | 6.1 | 13.0 | 0.00 | 0.00 | 0.00 | 69 | 1006.7 |
| 20260506011534 | 70 | 44 | 6.1 | 9.6 | 0.00 | 0.00 | 0.00 | 69 | 1006.6 |
| 20260506011031 | 70 | 42 | 5.2 | 10.4 | 0.00 | 0.00 | 0.00 | 69 | 1006.5 |
| 20260506010528 | 71 | 44 | 7.0 | 10.4 | 0.00 | 0.00 | 0.00 | 68 | 1006.3 |
| 20260506010026 | 71 | 47 | 7.0 | 12.2 | 0.00 | 0.00 | 0.00 | 68 | 1006.3 |
| 20260506005523 | 72 | 43 | 6.1 | 10.4 | 0.00 | 0.00 | 0.00 | 68 | 1006.2 |
| 20260506005020 | 72 | 40 | 4.3 | 11.3 | 0.00 | 0.00 | 0.00 | 68 | 1006.2 |
| 20260506004523 | 72 | 19 | 3.5 | 8.7 | 0.00 | 0.00 | 0.00 | 67 | 1006.0 |
| 20260506004034 | 72 | 31 | 5.2 | 9.6 | 0.00 | 0.00 | 0.00 | 67 | 1006.0 |
| 20260506003530 | 73 | 44 | 6.1 | 11.3 | 0.00 | 0.00 | 0.00 | 67 | 1005.6 |
| 20260506003027 | 74 | 38 | 4.3 | 8.7 | 0.00 | 0.00 | 0.00 | 66 | 1005.5 |
| 20260506002524 | 74 | 31 | 5.2 | 11.3 | 0.00 | 0.00 | 0.00 | 66 | 1005.5 |
| 20260506002041 | 74 | 33 | 6.1 | 12.2 | 0.00 | 0.00 | 0.00 | 65 | 1005.7 |
| 20260506001517 | 74 | 26 | 3.5 | 7.0 | 0.00 | 0.00 | 0.00 | 65 | 1005.6 |
| 20260506001034 | 75 | 21 | 5.2 | 10.4 | 0.00 | 0.00 | 0.00 | 64 | 1005.6 |
| 20260506000531 | 75 | 35 | 6.1 | 11.3 | 0.00 | 0.00 | 0.00 | 63 | 1005.4 |
| 20260506000028 | 76 | 38 | 4.3 | 10.4 | 0.00 | 0.00 | 0.00 | 64 | 1005.5 |
| 20260505235525 | 76 | 32 | 4.3 | 8.7 | 0.00 | 0.00 | 0.00 | 63 | 1005.4 |
| 20260505235022 | 77 | 16 | 4.3 | 10.4 | 0.00 | 0.00 | 0.00 | 62 | 1005.4 |
| 20260505234517 | 78 | 27 | 4.3 | 10.4 | 0.00 | 0.00 | 0.00 | 61 | 1005.4 |
| 20260505234035 | 78 | 14 | 5.2 | 11.3 | 0.00 | 0.00 | 0.00 | 60 | 1005.3 |
| 20260505233552 | 78 | 29 | 5.2 | 8.7 | 0.00 | 0.00 | 0.00 | 60 | 1005.3 |
| 20260505233028 | 79 | 29 | 3.5 | 9.6 | 0.00 | 0.00 | 0.00 | 60 | 1005.1 |
| 20260505232606 | 79 | 360 | 3.5 | 9.6 | 0.00 | 0.00 | 0.00 | 58 | 1005.3 |
| 20260505232043 | 79 | 10 | 4.3 | 9.6 | 0.00 | 0.00 | 0.00 | 58 | 1005.3 |
| 20260505231519 | 80 | 4 | 5.2 | 8.7 | 0.00 | 0.00 | 0.00 | 57 | 1005.3 |
| 20260505231016 | 81 | 18 | 3.5 | 10.4 | 0.00 | 0.00 | 0.00 | 57 | 1005.0 |
| 20260505230533 | 81 | 6 | 4.3 | 7.8 | 0.00 | 0.00 | 0.00 | 56 | 1004.9 |
| 20260505230030 | 82 | 356 | 4.3 | 7.8 | 0.00 | 0.00 | 0.00 | 55 | 1005.1 |
| 20260505225547 | 82 | 2 | 4.3 | 9.6 | 0.00 | 0.00 | 0.00 | 55 | 1005.0 |
| 20260505225024 | 83 | 354 | 4.3 | 9.6 | 0.00 | 0.00 | 0.00 | 55 | 1004.8 |
| 20260505224540 | 83 | 340 | 3.5 | 7.0 | 0.00 | 0.00 | 0.00 | 55 | 1004.6 |
| 20260505224017 | 84 | 333 | 3.5 | 6.1 | 0.00 | 0.00 | 0.00 | 54 | 1004.6 |
| 20260505223554 | 85 | 336 | 4.3 | 10.4 | 0.00 | 0.00 | 0.00 | 54 | 1004.5 |
| 20260505223031 | 85 | 343 | 3.5 | 7.8 | 0.00 | 0.00 | 0.00 | 54 | 1004.6 |
| 20260505222528 | 85 | 7 | 4.3 | 7.8 | 0.00 | 0.00 | 0.00 | 53 | 1004.6 |
| 20260505222024 | 85 | 357 | 3.5 | 6.1 | 0.00 | 0.00 | 0.00 | 52 | 1004.3 |
| 20260505221521 | 86 | 348 | 3.5 | 7.0 | 0.00 | 0.00 | 0.00 | 49 | 1004.3 |
| 20260505221018 | 87 | 349 | 3.5 | 6.1 | 0.00 | 0.00 | 0.00 | 47 | 1004.4 |
| 20260505220515 | 87 | 355 | 3.5 | 7.0 | 0.00 | 0.00 | 0.00 | 45 | 1004.2 |
| 20260505220052 | 87 | 357 | 3.5 | 6.1 | 0.00 | 0.00 | 0.00 | 45 | 1004.1 |
| 20260505215529 | 87 | 350 | 3.5 | 7.8 | 0.00 | 0.00 | 0.00 | 45 | 1004.1 |
| 20260505215026 | 88 | 8 | 2.6 | 5.2 | 0.00 | 0.00 | 0.00 | 45 | 1004.2 |
| 20260505214543 | 88 | 346 | 3.5 | 7.0 | 0.00 | 0.00 | 0.00 | 44 | 1004.2 |
| 20260505214019 | 88 | 343 | 2.6 | 5.2 | 0.00 | 0.00 | 0.00 | 45 | 1004.4 |
| 20260505213516 | 88 | 342 | 3.5 | 7.0 | 0.00 | 0.00 | 0.00 | 45 | 1004.3 |
| 20260505213032 | 89 | 354 | 2.6 | 6.1 | 0.00 | 0.00 | 0.00 | 45 | 1004.1 |
| 20260505212530 | 89 | 8 | 3.5 | 7.8 | 0.00 | 0.00 | 0.00 | 45 | 1004.1 |
| 20260505212047 | 91 | 333 | 3.5 | 7.8 | 0.00 | 0.00 | 0.00 | 44 | 1004.1 |
| 20260505211524 | 92 | 250 | 5.2 | 12.2 | 0.00 | 0.00 | 0.00 | 45 | 1004.1 |
| 20260505211020 | 92 | 228 | 6.1 | 10.4 | 0.00 | 0.00 | 0.00 | 44 | 1004.2 |
| 20260505210517 | 93 | 243 | 4.3 | 11.3 | 0.00 | 0.00 | 0.00 | 44 | 1004.4 |
| 20260505210034 | 93 | 236 | 5.2 | 9.6 | 0.00 | 0.00 | 0.00 | 44 | 1004.2 |
| 20260505205530 | 93 | 250 | 3.5 | 7.8 | 0.00 | 0.00 | 0.00 | 44 | 1004.3 |
| 20260505205027 | 93 | 264 | 3.5 | 7.0 | 0.00 | 0.00 | 0.00 | 45 | 1004.4 |
| 20260505204524 | 92 | 221 | 5.2 | 10.4 | 0.00 | 0.00 | 0.00 | 45 | 1004.5 |
| 20260505204022 | 92 | 234 | 4.3 | 7.8 | 0.00 | 0.00 | 0.00 | 45 | 1004.6 |
| 20260505203519 | 92 | 241 | 3.5 | 8.7 | 0.00 | 0.00 | 0.00 | 45 | 1004.6 |
| 20260505203016 | 92 | 255 | 4.3 | 7.8 | 0.00 | 0.00 | 0.00 | 46 | 1004.6 |
| 20260505202552 | 92 | 225 | 6.1 | 11.3 | 0.00 | 0.00 | 0.00 | 45 | 1004.6 |
| 20260505202029 | 92 | 232 | 5.2 | 10.4 | 0.00 | 0.00 | 0.00 | 47 | 1004.7 |
| 20260505201526 | 91 | 242 | 6.1 | 14.8 | 0.00 | 0.00 | 0.00 | 47 | 1004.9 |
| 20260505201103 | 92 | 254 | 5.2 | 12.2 | 0.00 | 0.00 | 0.00 | 47 | 1005.0 |
| 20260505200540 | 91 | 254 | 5.2 | 9.6 | 0.00 | 0.00 | 0.00 | 47 | 1005.0 |
| 20260505200016 | 91 | 259 | 4.3 | 9.6 | 0.00 | 0.00 | 0.00 | 47 | 1004.9 |
| 20260505195533 | 91 | 247 | 6.1 | 11.3 | 0.00 | 0.00 | 0.00 | 47 | 1005.0 |
| 20260505195030 | 90 | 262 | 4.3 | 9.6 | 0.00 | 0.00 | 0.00 | 48 | 1005.0 |
| 20260505194527 | 90 | 256 | 5.2 | 13.0 | 0.00 | 0.00 | 0.00 | 50 | 1004.9 |
| 20260505194024 | 90 | 235 | 5.2 | 13.9 | 0.00 | 0.00 | 0.00 | 52 | 1004.9 |
| 20260505193541 | 90 | 239 | 5.2 | 11.3 | 0.00 | 0.00 | 0.00 | 52 | 1004.9 |
| 20260505193017 | 89 | 219 | 6.1 | 12.2 | 0.00 | 0.00 | 0.00 | 53 | 1004.9 |
| 20260505192534 | 88 | 231 | 7.0 | 13.0 | 0.00 | 0.00 | 0.00 | 54 | 1005.0 |
| 20260505192031 | 88 | 225 | 6.1 | 12.2 | 0.00 | 0.00 | 0.00 | 53 | 1004.9 |
| 20260505191548 | 88 | 226 | 7.0 | 13.0 | 0.00 | 0.00 | 0.00 | 54 | 1004.9 |
| 20260505191045 | 87 | 221 | 7.0 | 13.9 | 0.00 | 0.00 | 0.00 | 54 | 1004.9 |
| 20260505190522 | 88 | 226 | 7.8 | 15.6 | 0.00 | 0.00 | 0.00 | 54 | 1004.9 |
| 20260505190038 | 87 | 218 | 6.1 | 15.6 | 0.00 | 0.00 | 0.00 | 55 | 1004.8 |
| 20260505185535 | 87 | 224 | 7.8 | 15.6 | 0.00 | 0.00 | 0.00 | 56 | 1004.9 |
| 20260505185052 | 86 | 228 | 7.0 | 16.5 | 0.00 | 0.00 | 0.00 | 58 | 1004.9 |
| 20260505184529 | 86 | 220 | 7.0 | 13.0 | 0.00 | 0.00 | 0.00 | 58 | 1005.0 |
| 20260505184025 | 86 | 222 | 7.8 | 16.5 | 0.00 | 0.00 | 0.00 | 58 | 1004.9 |
| 20260505183522 | 86 | 213 | 7.8 | 17.4 | 0.00 | 0.00 | 0.00 | 57 | 1005.2 |
| 20260505183019 | 86 | 208 | 4.3 | 9.6 | 0.00 | 0.00 | 0.00 | 58 | 1005.1 |
| 20260505182516 | 85 | 221 | 7.0 | 13.0 | 0.00 | 0.00 | 0.00 | 59 | 1005.1 |
| 20260505182032 | 85 | 230 | 7.0 | 13.0 | 0.00 | 0.00 | 0.00 | 59 | 1005.0 |
| 20260505181529 | 85 | 212 | 7.8 | 16.5 | 0.00 | 0.00 | 0.00 | 59 | 1005.0 |
| 20260505181026 | 86 | 218 | 6.1 | 11.3 | 0.00 | 0.00 | 0.00 | 60 | 1005.1 |
| 20260505180522 | 85 | 217 | 5.2 | 11.3 | 0.00 | 0.00 | 0.00 | 60 | 1005.2 |
| 20260505180019 | 85 | 219 | 6.1 | 11.3 | 0.00 | 0.00 | 0.00 | 61 | 1005.2 |
| 20260505175516 | 85 | 219 | 8.7 | 16.5 | 0.00 | 0.00 | 0.00 | 61 | 1005.1 |
| 20260505175033 | 85 | 223 | 5.2 | 11.3 | 0.00 | 0.00 | 0.00 | 61 | 1005.1 |
| 20260505174530 | 85 | 214 | 4.3 | 11.3 | 0.00 | 0.00 | 0.00 | 61 | 1005.0 |
| 20260505174047 | 84 | 218 | 5.2 | 12.2 | 0.00 | 0.00 | 0.00 | 62 | 1005.1 |
| 20260505173545 | 85 | 221 | 7.8 | 14.8 | 0.00 | 0.00 | 0.00 | 62 | 1005.1 |
| 20260505173041 | 84 | 218 | 7.8 | 16.5 | 0.00 | 0.00 | 0.00 | 62 | 1005.1 |
| 20260505172516 | 84 | 221 | 5.2 | 11.3 | 0.00 | 0.00 | 0.00 | 62 | 1005.0 |
| 20260505172032 | 84 | 224 | 5.2 | 15.6 | 0.00 | 0.00 | 0.00 | 62 | 1005.1 |
| 20260505171528 | 84 | 213 | 6.1 | 13.9 | 0.00 | 0.00 | 0.00 | 63 | 1005.1 |
| 20260505171046 | 84 | 216 | 5.2 | 16.5 | 0.00 | 0.00 | 0.00 | 62 | 1005.2 |
| 20260505170522 | 84 | 217 | 7.0 | 15.6 | 0.00 | 0.00 | 0.00 | 63 | 1005.0 |
| 20260505170019 | 84 | 216 | 6.1 | 15.6 | 0.00 | 0.00 | 0.00 | 62 | 1005.0 |
| 20260505165516 | 83 | 215 | 5.2 | 11.3 | 0.00 | 0.00 | 0.00 | 63 | 1005.0 |
| 20260505165033 | 83 | 218 | 7.8 | 18.2 | 0.00 | 0.00 | 0.00 | 64 | 1005.1 |
| 20260505164530 | 83 | 215 | 7.0 | 16.5 | 0.00 | 0.00 | 0.00 | 64 | 1005.1 |
| 20260505164026 | 82 | 215 | 7.0 | 13.0 | 0.00 | 0.00 | 0.00 | 66 | 1005.1 |
| 20260505163523 | 82 | 216 | 5.2 | 11.3 | 0.00 | 0.00 | 0.00 | 66 | 1005.0 |
| 20260505163040 | 81 | 215 | 4.3 | 11.3 | 0.00 | 0.00 | 0.00 | 67 | 1005.0 |
| 20260505162517 | 80 | 216 | 6.1 | 14.8 | 0.00 | 0.00 | 0.00 | 68 | 1005.0 |
| 20260505162033 | 81 | 222 | 7.0 | 17.4 | 0.00 | 0.00 | 0.00 | 67 | 1005.0 |
| 20260505161531 | 81 | 217 | 7.8 | 15.6 | 0.00 | 0.00 | 0.00 | 67 | 1005.0 |
| 20260505161028 | 81 | 217 | 5.2 | 13.9 | 0.00 | 0.00 | 0.00 | 67 | 1004.8 |
| 20260505160525 | 80 | 223 | 5.2 | 11.3 | 0.00 | 0.00 | 0.00 | 68 | 1004.9 |
| 20260505153023 | 77 | 215 | 3.5 | 11.3 | 0.00 | 0.00 | 0.00 | 73 | 1004.7 |
| 20260505152519 | 77 | 219 | 6.1 | 13.0 | 0.00 | 0.00 | 0.00 | 73 | 1004.5 |
| 20260505152016 | 77 | 213 | 5.2 | 13.0 | 0.00 | 0.00 | 0.00 | 74 | 1004.6 |
| 20260505151533 | 77 | 217 | 6.1 | 13.9 | 0.00 | 0.00 | 0.00 | 73 | 1004.6 |
| 20260505151030 | 77 | 222 | 5.2 | 10.4 | 0.00 | 0.00 | 0.00 | 74 | 1004.8 |
| 20260505150526 | 77 | 204 | 6.1 | 10.4 | 0.00 | 0.00 | 0.00 | 74 | 1004.4 |
| 20260505140527 | 74 | 215 | 4.3 | 10.4 | 0.00 | 0.00 | 0.00 | 79 | 1004.4 |
| 20260505125019 | 71 | 227 | 4.3 | 11.3 | 0.00 | 0.00 | 0.00 | 84 | 1004.2 |
| 20260505124516 | 71 | 216 | 5.2 | 10.4 | 0.00 | 0.00 | 0.00 | 84 | 1004.0 |
| 20260505124033 | 71 | 211 | 7.0 | 17.4 | 0.00 | 0.00 | 0.00 | 84 | 1003.9 |
| 20260505123530 | 71 | 217 | 5.2 | 10.4 | 0.00 | 0.00 | 0.00 | 85 | 1003.8 |
| 20260505123027 | 71 | 223 | 4.3 | 11.3 | 0.00 | 0.00 | 0.00 | 85 | 1003.8 |
| 20260505122523 | 71 | 215 | 4.3 | 11.3 | 0.00 | 0.00 | 0.00 | 85 | 1003.7 |
| 20260505122020 | 70 | 208 | 4.3 | 13.0 | 0.00 | 0.00 | 0.00 | 86 | 1003.7 |
| 20260505121517 | 70 | 210 | 5.2 | 12.2 | 0.00 | 0.00 | 0.00 | 86 | 1003.7 |
| 20260505121034 | 70 | 199 | 4.3 | 10.4 | 0.00 | 0.00 | 0.00 | 86 | 1003.6 |
| 20260505120531 | 70 | 206 | 3.5 | 11.3 | 0.00 | 0.00 | 0.00 | 86 | 1003.4 |
| 20260505120028 | 70 | 210 | 4.3 | 10.4 | 0.00 | 0.00 | 0.00 | 86 | 1003.4 |
| 20260505115525 | 70 | 213 | 4.3 | 10.4 | 0.00 | 0.00 | 0.00 | 87 | 1003.5 |
| 20260505115021 | 70 | 200 | 4.3 | 10.4 | 0.00 | 0.00 | 0.00 | 87 | 1003.5 |
| 20260505114518 | 70 | 208 | 4.3 | 7.8 | 0.00 | 0.00 | 0.00 | 86 | 1003.5 |
| 20260505114035 | 70 | 221 | 3.5 | 9.6 | 0.00 | 0.00 | 0.00 | 86 | 1003.4 |
| 20260505113532 | 70 | 233 | 4.3 | 9.6 | 0.00 | 0.00 | 0.00 | 86 | 1003.4 |
| 20260505113029 | 70 | 216 | 5.2 | 11.3 | 0.00 | 0.00 | 0.00 | 86 | 1003.4 |
| 20260505112525 | 70 | 197 | 3.5 | 8.7 | 0.00 | 0.00 | 0.00 | 86 | 1003.2 |
| 20260505112043 | 70 | 226 | 4.3 | 11.3 | 0.00 | 0.00 | 0.00 | 86 | 1003.4 |
| 20260505111519 | 70 | 224 | 3.5 | 7.8 | 0.00 | 0.00 | 0.00 | 86 | 1003.3 |
| 20260505111016 | 70 | 202 | 4.3 | 13.0 | 0.00 | 0.00 | 0.00 | 86 | 1003.3 |
| 20260505110534 | 70 | 217 | 5.2 | 12.2 | 0.00 | 0.00 | 0.00 | 86 | 1003.3 |
| 20260505102026 | 70 | 210 | 5.2 | 11.3 | 0.00 | 0.00 | 0.00 | 85 | 1003.2 |
| 20260505101523 | 70 | 222 | 5.2 | 11.3 | 0.00 | 0.00 | 0.00 | 85 | 1003.5 |
| 20260505101020 | 70 | 214 | 4.3 | 12.2 | 0.00 | 0.00 | 0.00 | 85 | 1003.2 |
| 20260505100516 | 70 | 216 | 5.2 | 11.3 | 0.00 | 0.00 | 0.00 | 85 | 1003.2 |
| 20260505100033 | 70 | 207 | 4.3 | 11.3 | 0.00 | 0.00 | 0.00 | 85 | 1003.2 |
| 20260505095530 | 70 | 207 | 5.2 | 13.0 | 0.00 | 0.00 | 0.00 | 85 | 1003.3 |
| 20260505095027 | 71 | 212 | 5.2 | 11.3 | 0.00 | 0.00 | 0.00 | 85 | 1003.4 |
| 20260505094524 | 71 | 213 | 5.2 | 13.9 | 0.00 | 0.00 | 0.00 | 84 | 1003.3 |
| 20260505094020 | 71 | 206 | 5.2 | 10.4 | 0.00 | 0.00 | 0.00 | 84 | 1003.3 |
| 20260505093518 | 71 | 220 | 5.2 | 10.4 | 0.00 | 0.00 | 0.00 | 84 | 1003.3 |
| 20260505093035 | 71 | 215 | 4.3 | 13.0 | 0.00 | 0.00 | 0.00 | 83 | 1003.4 |
| 20260505092531 | 71 | 209 | 4.3 | 9.6 | 0.00 | 0.00 | 0.00 | 83 | 1003.3 |
| 20260505092028 | 71 | 216 | 6.1 | 13.9 | 0.00 | 0.00 | 0.00 | 83 | 1003.4 |
| 20260505091526 | 71 | 224 | 5.2 | 13.0 | 0.00 | 0.00 | 0.00 | 83 | 1003.5 |
| 20260505091021 | 71 | 217 | 5.2 | 16.5 | 0.00 | 0.00 | 0.00 | 82 | 1003.6 |
| 20260505090519 | 72 | 206 | 6.1 | 15.6 | 0.00 | 0.00 | 0.00 | 82 | 1003.7 |
| 20260505090035 | 72 | 211 | 4.3 | 13.9 | 0.00 | 0.00 | 0.00 | 82 | 1003.7 |
| 20260505085552 | 72 | 212 | 6.1 | 14.8 | 0.00 | 0.00 | 0.00 | 81 | 1003.7 |
| 20260505085029 | 72 | 213 | 5.2 | 12.2 | 0.00 | 0.00 | 0.00 | 81 | 1003.7 |
| 20260505084526 | 72 | 218 | 4.3 | 13.0 | 0.00 | 0.00 | 0.00 | 81 | 1003.7 |
| 20260505084022 | 72 | 216 | 5.2 | 16.5 | 0.00 | 0.00 | 0.00 | 80 | 1003.8 |
| 20260505083539 | 72 | 225 | 5.2 | 13.0 | 0.00 | 0.00 | 0.00 | 80 | 1003.7 |
| 20260505083015 | 72 | 205 | 4.3 | 13.0 | 0.00 | 0.00 | 0.00 | 80 | 1003.8 |
| 20260505082532 | 72 | 217 | 5.2 | 15.6 | 0.00 | 0.00 | 0.00 | 80 | 1003.8 |
| 20260505082029 | 72 | 211 | 4.3 | 11.3 | 0.00 | 0.00 | 0.00 | 79 | 1003.8 |
| 20260505081546 | 73 | 213 | 6.1 | 13.9 | 0.00 | 0.00 | 0.00 | 79 | 1003.7 |
| 20260505081023 | 73 | 211 | 4.3 | 13.0 | 0.00 | 0.00 | 0.00 | 78 | 1003.7 |
| 20260505080540 | 73 | 205 | 5.2 | 11.3 | 0.00 | 0.00 | 0.00 | 78 | 1003.7 |
| 20260505080037 | 73 | 207 | 5.2 | 12.2 | 0.00 | 0.00 | 0.00 | 77 | 1003.7 |
| 20260505075534 | 73 | 213 | 5.2 | 10.4 | 0.00 | 0.00 | 0.00 | 77 | 1003.8 |
| 20260505075031 | 73 | 216 | 4.3 | 10.4 | 0.00 | 0.00 | 0.00 | 76 | 1003.8 |
| 20260505074527 | 73 | 212 | 4.3 | 12.2 | 0.00 | 0.00 | 0.00 | 76 | 1003.9 |
| 20260505074025 | 73 | 211 | 4.3 | 9.6 | 0.00 | 0.00 | 0.00 | 76 | 1004.0 |
| 20260505073520 | 73 | 218 | 5.2 | 15.6 | 0.00 | 0.00 | 0.00 | 75 | 1004.1 |
| 20260505073018 | 73 | 214 | 5.2 | 15.6 | 0.00 | 0.00 | 0.00 | 75 | 1004.2 |
| 20260505072535 | 73 | 223 | 4.3 | 12.2 | 0.00 | 0.00 | 0.00 | 75 | 1004.3 |
| 20260505072032 | 74 | 209 | 5.2 | 9.6 | 0.00 | 0.00 | 0.00 | 74 | 1004.5 |
| 20260505071530 | 74 | 208 | 5.2 | 13.0 | 0.00 | 0.00 | 0.00 | 74 | 1004.5 |
| 20260505071027 | 74 | 208 | 4.3 | 14.8 | 0.00 | 0.00 | 0.00 | 74 | 1004.6 |
| 20260505070524 | 74 | 223 | 5.2 | 13.0 | 0.00 | 0.00 | 0.00 | 73 | 1004.7 |
| 20260505070021 | 74 | 211 | 5.2 | 15.6 | 0.00 | 0.00 | 0.00 | 73 | 1004.8 |
| 20260505065518 | 74 | 210 | 5.2 | 14.8 | 0.00 | 0.00 | 0.00 | 72 | 1004.8 |
| 20260505065035 | 74 | 210 | 4.3 | 13.0 | 0.00 | 0.00 | 0.00 | 72 | 1004.9 |
| 20260505064612 | 74 | 215 | 5.2 | 12.2 | 0.00 | 0.00 | 0.00 | 71 | 1004.9 |
| 20260505064029 | 74 | 211 | 6.1 | 15.6 | 0.00 | 0.00 | 0.00 | 71 | 1005.0 |
| 20260505063525 | 74 | 211 | 5.2 | 11.3 | 0.00 | 0.00 | 0.00 | 71 | 1005.0 |
| 20260505063042 | 74 | 213 | 4.3 | 14.8 | 0.00 | 0.00 | 0.00 | 71 | 1005.1 |
| 20260505062519 | 75 | 226 | 5.2 | 13.9 | 0.00 | 0.00 | 0.00 | 70 | 1005.1 |
| 20260505062016 | 75 | 210 | 5.2 | 15.6 | 0.00 | 0.00 | 0.00 | 70 | 1005.1 |
| 20260505061533 | 75 | 196 | 4.3 | 11.3 | 0.00 | 0.00 | 0.00 | 70 | 1005.1 |
| 20260505061030 | 75 | 212 | 4.3 | 12.2 | 0.00 | 0.00 | 0.00 | 70 | 1005.1 |
| 20260505060526 | 75 | 214 | 4.3 | 11.3 | 0.00 | 0.00 | 0.00 | 69 | 1005.0 |
| 20260505060044 | 75 | 218 | 3.5 | 12.2 | 0.00 | 0.00 | 0.00 | 69 | 1005.1 |
| 20260505055520 | 75 | 231 | 5.2 | 11.3 | 0.00 | 0.00 | 0.00 | 69 | 1005.0 |
| 20260505055016 | 76 | 211 | 6.1 | 15.6 | 0.00 | 0.00 | 0.00 | 68 | 1005.1 |
| 20260505054534 | 76 | 209 | 5.2 | 13.0 | 0.00 | 0.00 | 0.00 | 68 | 1005.1 |
| 20260505054030 | 76 | 204 | 4.3 | 12.2 | 0.00 | 0.00 | 0.00 | 68 | 1005.0 |
| 20260505053527 | 76 | 215 | 5.2 | 13.0 | 0.00 | 0.00 | 0.00 | 68 | 1005.0 |
| 20260505053024 | 76 | 211 | 4.3 | 11.3 | 0.00 | 0.00 | 0.00 | 68 | 1004.9 |
| 20260505052521 | 76 | 205 | 5.2 | 12.2 | 0.00 | 0.00 | 0.00 | 67 | 1005.0 |
| 20260505052018 | 76 | 203 | 5.2 | 9.6 | 0.00 | 0.00 | 0.00 | 67 | 1005.0 |
| 20260505051535 | 76 | 212 | 5.2 | 11.3 | 0.00 | 0.00 | 0.00 | 67 | 1005.1 |
| 20260505051031 | 76 | 210 | 5.2 | 10.4 | 0.00 | 0.00 | 0.00 | 67 | 1005.1 |
| 20260505050528 | 76 | 213 | 4.3 | 11.3 | 0.00 | 0.00 | 0.00 | 67 | 1005.1 |
| 20260505041516 | 76 | 204 | 4.3 | 8.7 | 0.00 | 0.00 | 0.00 | 68 | 1005.4 |
| 20260505041053 | 76 | 213 | 4.3 | 10.4 | 0.00 | 0.00 | 0.00 | 69 | 1005.6 |
| 20260505040529 | 76 | 225 | 3.5 | 9.6 | 0.00 | 0.00 | 0.00 | 69 | 1005.4 |
| 20260505040026 | 76 | 202 | 3.5 | 7.0 | 0.00 | 0.00 | 0.00 | 69 | 1005.4 |
| 20260505035543 | 76 | 203 | 4.3 | 7.8 | 0.00 | 0.00 | 0.00 | 69 | 1005.5 |
| 20260505035020 | 76 | 211 | 3.5 | 7.8 | 0.00 | 0.00 | 0.00 | 68 | 1005.4 |
| 20260505034516 | 76 | 211 | 3.5 | 9.6 | 0.00 | 0.00 | 0.00 | 68 | 1005.5 |
| 20260505034033 | 76 | 211 | 3.5 | 9.6 | 0.00 | 0.00 | 0.00 | 68 | 1005.5 |
| 20260505033550 | 76 | 209 | 3.5 | 8.7 | 0.00 | 0.00 | 0.00 | 68 | 1005.4 |
| 20260505033026 | 76 | 191 | 3.5 | 8.7 | 0.00 | 0.00 | 0.00 | 68 | 1005.4 |
| 20260505032523 | 76 | 198 | 4.3 | 13.0 | 0.00 | 0.00 | 0.00 | 68 | 1005.5 |
| 20260505032020 | 76 | 185 | 3.5 | 9.6 | 0.00 | 0.00 | 0.00 | 68 | 1005.4 |
| 20260505031517 | 76 | 186 | 3.5 | 8.7 | 0.00 | 0.00 | 0.00 | 68 | 1005.3 |
| 20260505031034 | 76 | 193 | 3.5 | 10.4 | 0.00 | 0.00 | 0.00 | 68 | 1005.4 |
| 20260505030531 | 76 | 192 | 3.5 | 8.7 | 0.00 | 0.00 | 0.00 | 68 | 1005.5 |
| 20260505030027 | 76 | 188 | 4.3 | 8.7 | 0.00 | 0.00 | 0.00 | 68 | 1005.5 |